Time,TemperatureF,DewpointF,PressureIn,WindDirection,WindDirectionDegrees,WindSpeedMPH,WindSpeedGustMPH,Humidity,HourlyPrecipIn,Conditions,Clouds,dailyrainin,SoftwareType,DateUTC
2013-07-06 00:01:00,67.0,-23.0,28.05,NNE,22,0.0,0.0,0,0.00,,,0.00,Rainwise IP-100,2013-07-06 04:01:00,
2013-07-06 00:06:00,67.0,-23.0,28.05,NNE,22,0.0,2.0,0,0.00,,,0.00,Rainwise IP-100,2013-07-06 04:06:00,
2013-07-06 00:11:00,67.0,-23.0,28.05,NNE,22,0.0,0.0,0,0.00,,,0.00,Rainwise IP-100,2013-07-06 04:11:00,
2013-07-06 00:16:00,67.0,-23.0,28.05,NNE,22,0.0,0.0,0,0.00,,,0.00,Rainwise IP-100,2013-07-06 04:16:00,
2013-07-06 00:21:00,67.0,-23.0,28.04,NNE,22,0.0,2.0,0,0.00,,,0.00,Rainwise IP-100,2013-07-06 04:21:00,
2013-07-06 00:26:00,67.0,-23.0,28.04,NNE,22,0.0,0.0,0,0.00,,,0.00,Rainwise IP-100,2013-07-06 04:26:00,
2013-07-06 00:31:00,67.0,-23.0,28.04,NNE,22,0.0,2.0,0,0.00,,,0.00,Rainwise IP-100,2013-07-06 04:31:00,
2013-07-06 00:36:00,67.0,-23.0,28.04,NNE,22,0.0,2.0,0,0.00,,,0.00,Rainwise IP-100,2013-07-06 04:36:00,
2013-07-06 00:41:00,67.0,-23.0,28.04,NNE,22,0.0,1.0,0,0.00,,,0.00,Rainwise IP-100,2013-07-06 04:41:00,
2013-07-06 00:46:00,67.0,-23.0,28.04,NNE,22,0.0,0.0,0,0.00,,,0.00,Rainwise IP-100,2013-07-06 04:46:00,
2013-07-06 00:50:00,67.0,-23.0,28.04,NNE,22,0.0,0.0,0,0.00,,,0.00,Rainwise IP-100,2013-07-06 04:50:00,
2013-07-06 01:03:00,67.0,-23.0,28.04,NE,45,0.0,0.0,0,0.00,,,0.07,Rainwise IP-100,2013-07-06 05:03:00,
2013-07-06 01:08:00,67.0,-23.0,28.04,NE,45,0.0,0.0,0,0.48,,,0.08,Rainwise IP-100,2013-07-06 05:08:00,
2013-07-06 01:13:00,67.0,-23.0,28.04,NE,45,0.0,0.0,0,0.48,,,0.08,Rainwise IP-100,2013-07-06 05:13:00,
2013-07-06 01:18:00,67.0,-23.0,28.03,ENE,67,0.0,0.0,0,0.00,,,0.12,Rainwise IP-100,2013-07-06 05:18:00,
2013-07-06 01:23:00,67.0,-23.0,28.03,NNE,22,1.0,5.0,0,0.36,,,0.14,Rainwise IP-100,2013-07-06 05:23:00,
2013-07-06 01:28:00,67.0,-23.0,28.03,NNE,22,1.0,5.0,0,0.36,,,0.14,Rainwise IP-100,2013-07-06 05:28:00,
2013-07-06 01:33:00,67.0,-23.0,28.02,SSE,157,0.0,5.0,0,0.00,,,0.20,Rainwise IP-100,2013-07-06 05:33:00,
2013-07-06 01:38:00,67.0,-23.0,28.02,ESE,112,3.0,3.0,0,0.36,,,0.20,Rainwise IP-100,2013-07-06 05:38:00,
2013-07-06 01:43:00,67.0,-23.0,28.03,ESE,112,0.0,3.0,0,0.36,,,0.20,Rainwise IP-100,2013-07-06 05:43:00,
2013-07-06 01:46:00,67.0,-23.0,28.03,NNE,22,0.0,0.0,0,0.00,,,0.20,Rainwise IP-100,2013-07-06 05:46:00,
2013-07-06 01:51:00,67.0,-23.0,28.03,SSE,157,4.0,7.0,0,0.06,,,0.21,Rainwise IP-100,2013-07-06 05:51:00,
2013-07-06 01:56:00,67.0,-23.0,28.03,ENE,67,0.0,7.0,0,0.06,,,0.21,Rainwise IP-100,2013-07-06 05:56:00,
2013-07-06 02:01:00,67.0,-23.0,28.02,SE,135,0.0,6.0,0,0.06,,,0.22,Rainwise IP-100,2013-07-06 06:01:00,
2013-07-06 02:06:00,67.0,-23.0,28.02,NNW,337,0.0,3.0,0,0.06,,,0.22,Rainwise IP-100,2013-07-06 06:06:00,
2013-07-06 02:11:00,67.0,-23.0,28.02,ESE,112,0.0,4.0,0,0.00,,,0.22,Rainwise IP-100,2013-07-06 06:11:00,
2013-07-06 02:16:00,67.0,-23.0,28.02,ESE,112,0.0,1.0,0,0.00,,,0.22,Rainwise IP-100,2013-07-06 06:16:00,
2013-07-06 02:21:00,67.0,-23.0,28.02,NNE,22,3.0,4.0,0,0.00,,,0.22,Rainwise IP-100,2013-07-06 06:21:00,
2013-07-06 02:26:00,67.0,-23.0,28.02,SE,135,2.0,6.0,0,0.00,,,0.22,Rainwise IP-100,2013-07-06 06:26:00,
2013-07-06 02:31:00,67.0,-23.0,28.02,ENE,67,1.0,5.0,0,0.00,,,0.22,Rainwise IP-100,2013-07-06 06:31:00,
2013-07-06 02:36:00,68.0,-23.0,28.02,SSE,157,1.0,3.0,0,0.00,,,0.22,Rainwise IP-100,2013-07-06 06:36:00,
2013-07-06 02:41:00,68.0,-23.0,28.02,SSE,157,1.0,2.0,0,0.00,,,0.22,Rainwise IP-100,2013-07-06 06:41:00,
2013-07-06 02:46:00,68.0,-23.0,28.02,SSE,157,0.0,5.0,0,0.00,,,0.22,Rainwise IP-100,2013-07-06 06:46:00,
2013-07-06 02:51:00,68.0,-23.0,28.02,SE,135,1.0,2.0,0,0.00,,,0.22,Rainwise IP-100,2013-07-06 06:51:00,
2013-07-06 02:56:00,68.0,-23.0,28.02,WSW,247,0.0,2.0,0,0.60,,,0.32,Rainwise IP-100,2013-07-06 06:56:00,
2013-07-06 03:01:00,67.0,-23.0,28.02,South,180,0.0,4.0,0,1.98,,,0.57,Rainwise IP-100,2013-07-06 07:01:00,
2013-07-06 03:06:00,67.0,-23.0,28.03,SE,135,0.0,0.0,0,2.04,,,0.66,Rainwise IP-100,2013-07-06 07:06:00,
2013-07-06 03:11:00,67.0,-23.0,28.03,SE,135,0.0,0.0,0,0.84,,,0.70,Rainwise IP-100,2013-07-06 07:11:00,
2013-07-06 03:16:00,66.0,-23.0,28.03,West,270,0.0,0.0,0,0.30,,,0.71,Rainwise IP-100,2013-07-06 07:16:00,
2013-07-06 03:21:00,66.0,-23.0,28.03,WSW,247,0.0,0.0,0,0.12,,,0.76,Rainwise IP-100,2013-07-06 07:21:00,
2013-07-06 03:26:00,66.0,-23.0,28.03,SE,135,0.0,1.0,0,0.42,,,0.78,Rainwise IP-100,2013-07-06 07:26:00,
2013-07-06 03:31:00,66.0,-23.0,28.03,SE,135,0.0,0.0,0,0.66,,,0.82,Rainwise IP-100,2013-07-06 07:31:00,
2013-07-06 03:36:00,66.0,-23.0,28.04,SE,135,0.0,0.0,0,0.36,,,0.84,Rainwise IP-100,2013-07-06 07:36:00,
2013-07-06 03:41:00,65.0,-23.0,28.04,SSW,202,0.0,3.0,0,0.24,,,0.86,Rainwise IP-100,2013-07-06 07:41:00,
2013-07-06 03:46:00,65.0,-23.0,28.04,WSW,247,0.0,2.0,0,0.18,,,0.87,Rainwise IP-100,2013-07-06 07:46:00,
2013-07-06 03:51:00,65.0,-23.0,28.04,SSW,202,0.0,0.0,0,0.06,,,0.87,Rainwise IP-100,2013-07-06 07:51:00,
2013-07-06 03:56:00,65.0,-23.0,28.03,SSW,202,0.0,0.0,0,0.00,,,0.87,Rainwise IP-100,2013-07-06 07:56:00,
2013-07-06 04:01:00,65.0,-23.0,28.03,SSW,202,0.0,0.0,0,0.00,,,0.87,Rainwise IP-100,2013-07-06 08:01:00,
2013-07-06 04:06:00,65.0,-23.0,28.03,SSW,202,0.0,0.0,0,0.00,,,0.87,Rainwise IP-100,2013-07-06 08:06:00,
2013-07-06 04:11:00,65.0,-23.0,28.03,SSW,202,0.0,0.0,0,0.00,,,0.87,Rainwise IP-100,2013-07-06 08:11:00,
2013-07-06 04:16:00,65.0,-23.0,28.03,SSW,202,0.0,0.0,0,0.00,,,0.87,Rainwise IP-100,2013-07-06 08:16:00,
2013-07-06 04:21:00,65.0,-23.0,28.03,SSW,202,0.0,0.0,0,0.00,,,0.87,Rainwise IP-100,2013-07-06 08:21:00,
2013-07-06 04:26:00,65.0,-23.0,28.03,SSW,202,0.0,0.0,0,0.00,,,0.87,Rainwise IP-100,2013-07-06 08:26:00,
2013-07-06 04:31:00,65.0,-23.0,28.03,SSW,202,0.0,0.0,0,0.00,,,0.87,Rainwise IP-100,2013-07-06 08:31:00,
2013-07-06 04:36:00,65.0,-23.0,28.03,SSW,202,0.0,0.0,0,0.00,,,0.87,Rainwise IP-100,2013-07-06 08:36:00,
2013-07-06 04:41:00,65.0,-23.0,28.03,SSW,202,0.0,0.0,0,0.00,,,0.87,Rainwise IP-100,2013-07-06 08:41:00,
2013-07-06 04:46:00,65.0,-23.0,28.03,SSW,202,0.0,0.0,0,0.00,,,0.87,Rainwise IP-100,2013-07-06 08:46:00,
2013-07-06 04:51:00,65.0,-23.0,28.03,SSW,202,0.0,0.0,0,0.00,,,0.87,Rainwise IP-100,2013-07-06 08:51:00,
2013-07-06 04:56:00,65.0,-23.0,28.03,SSW,202,0.0,0.0,0,0.00,,,0.87,Rainwise IP-100,2013-07-06 08:56:00,
2013-07-06 05:01:00,65.0,-23.0,28.02,SSW,202,0.0,0.0,0,0.06,,,0.88,Rainwise IP-100,2013-07-06 09:01:00,
2013-07-06 05:06:00,65.0,-23.0,28.02,SSW,202,0.0,0.0,0,0.06,,,0.88,Rainwise IP-100,2013-07-06 09:06:00,
2013-07-06 05:11:00,65.0,-23.0,28.02,SSW,202,0.0,0.0,0,0.00,,,0.88,Rainwise IP-100,2013-07-06 09:11:00,
2013-07-06 05:16:00,65.0,-23.0,28.02,SSW,202,0.0,0.0,0,0.00,,,0.88,Rainwise IP-100,2013-07-06 09:16:00,
2013-07-06 05:21:00,65.0,-23.0,28.02,SSW,202,0.0,0.0,0,0.00,,,0.88,Rainwise IP-100,2013-07-06 09:21:00,
2013-07-06 05:26:00,65.0,-23.0,28.03,SSW,202,0.0,0.0,0,0.00,,,0.88,Rainwise IP-100,2013-07-06 09:26:00,
2013-07-06 05:31:00,65.0,-23.0,28.03,SSW,202,0.0,0.0,0,0.00,,,0.88,Rainwise IP-100,2013-07-06 09:31:00,
2013-07-06 05:36:00,65.0,-23.0,28.03,SSW,202,0.0,0.0,0,0.00,,,0.88,Rainwise IP-100,2013-07-06 09:36:00,
2013-07-06 05:41:00,65.0,-23.0,28.03,SSW,202,0.0,0.0,0,0.00,,,0.88,Rainwise IP-100,2013-07-06 09:41:00,
2013-07-06 05:46:00,65.0,-23.0,28.03,SSW,202,0.0,0.0,0,0.00,,,0.88,Rainwise IP-100,2013-07-06 09:46:00,
2013-07-06 05:51:00,65.0,-23.0,28.03,SSW,202,0.0,0.0,0,0.00,,,0.88,Rainwise IP-100,2013-07-06 09:51:00,
2013-07-06 05:56:00,65.0,-23.0,28.02,SSW,202,0.0,0.0,0,0.00,,,0.88,Rainwise IP-100,2013-07-06 09:56:00,
2013-07-06 06:01:00,65.0,-23.0,28.02,SSW,202,0.0,0.0,0,0.00,,,0.88,Rainwise IP-100,2013-07-06 10:01:00,
2013-07-06 06:06:00,65.0,-23.0,28.02,SSW,202,0.0,0.0,0,0.00,,,0.88,Rainwise IP-100,2013-07-06 10:06:00,
2013-07-06 06:17:00,66.0,-23.0,28.03,SSE,157,0.0,0.0,0,0.00,,,0.88,Rainwise IP-100,2013-07-06 10:17:00,
2013-07-06 06:22:00,66.0,-23.0,28.03,ESE,112,1.0,3.0,0,0.00,,,0.88,Rainwise IP-100,2013-07-06 10:22:00,
2013-07-06 06:27:00,66.0,-23.0,28.04,SE,135,0.0,3.0,0,0.00,,,0.88,Rainwise IP-100,2013-07-06 10:27:00,
2013-07-06 06:32:00,66.0,-23.0,28.04,SE,135,0.0,3.0,0,0.00,,,0.88,Rainwise IP-100,2013-07-06 10:32:00,
2013-07-06 06:37:00,66.0,-23.0,28.04,ESE,112,0.0,3.0,0,0.00,,,0.88,Rainwise IP-100,2013-07-06 10:37:00,
2013-07-06 06:42:00,66.0,-23.0,28.04,ESE,112,0.0,0.0,0,0.00,,,0.88,Rainwise IP-100,2013-07-06 10:42:00,
2013-07-06 06:47:00,66.0,-23.0,28.03,ESE,112,0.0,0.0,0,0.00,,,0.88,Rainwise IP-100,2013-07-06 10:47:00,
2013-07-06 06:52:00,66.0,-23.0,28.03,ESE,112,0.0,1.0,0,0.00,,,0.88,Rainwise IP-100,2013-07-06 10:52:00,
2013-07-06 06:57:00,66.0,-23.0,28.03,ESE,112,3.0,3.0,0,0.00,,,0.88,Rainwise IP-100,2013-07-06 10:57:00,
2013-07-06 07:02:00,66.0,-23.0,28.03,NE,45,0.0,3.0,0,0.00,,,0.88,Rainwise IP-100,2013-07-06 11:02:00,
2013-07-06 07:07:00,66.0,-23.0,28.03,SE,135,2.0,4.0,0,0.00,,,0.88,Rainwise IP-100,2013-07-06 11:07:00,
2013-07-06 07:12:00,66.0,-23.0,28.03,ENE,67,0.0,4.0,0,0.00,,,0.88,Rainwise IP-100,2013-07-06 11:12:00,
2013-07-06 07:17:00,67.0,-23.0,28.03,South,180,4.0,6.0,0,0.00,,,0.88,Rainwise IP-100,2013-07-06 11:17:00,
2013-07-06 07:22:00,67.0,-23.0,28.03,ESE,112,1.0,6.0,0,0.00,,,0.88,Rainwise IP-100,2013-07-06 11:22:00,
2013-07-06 07:27:00,67.0,-23.0,28.04,ESE,112,3.0,3.0,0,0.00,,,0.88,Rainwise IP-100,2013-07-06 11:27:00,
2013-07-06 07:32:00,67.0,-23.0,28.04,SE,135,1.0,6.0,0,0.00,,,0.88,Rainwise IP-100,2013-07-06 11:32:00,
2013-07-06 07:37:00,67.0,-23.0,28.04,SSW,202,0.0,4.0,0,0.00,,,0.88,Rainwise IP-100,2013-07-06 11:37:00,
2013-07-06 07:42:00,67.0,-23.0,28.04,SE,135,0.0,4.0,0,0.00,,,0.88,Rainwise IP-100,2013-07-06 11:42:00,
2013-07-06 07:47:00,67.0,-23.0,28.04,East,90,1.0,4.0,0,0.00,,,0.88,Rainwise IP-100,2013-07-06 11:47:00,
2013-07-06 07:52:00,67.0,-23.0,28.05,NE,45,2.0,4.0,0,0.00,,,0.88,Rainwise IP-100,2013-07-06 11:52:00,
2013-07-06 07:57:00,67.0,-23.0,28.05,SE,135,3.0,5.0,0,0.00,,,0.88,Rainwise IP-100,2013-07-06 11:57:00,
2013-07-06 08:02:00,68.0,-23.0,28.04,East,90,3.0,5.0,0,0.00,,,0.88,Rainwise IP-100,2013-07-06 12:02:00,
2013-07-06 08:07:00,68.0,-23.0,28.04,SSW,202,0.0,4.0,0,0.00,,,0.88,Rainwise IP-100,2013-07-06 12:07:00,
2013-07-06 08:12:00,68.0,-23.0,28.05,SSW,202,1.0,4.0,0,0.00,,,0.88,Rainwise IP-100,2013-07-06 12:12:00,
2013-07-06 08:17:00,68.0,-23.0,28.05,SE,135,0.0,6.0,0,0.00,,,0.88,Rainwise IP-100,2013-07-06 12:17:00,
2013-07-06 08:22:00,68.0,-23.0,28.05,WSW,247,0.0,4.0,0,0.00,,,0.88,Rainwise IP-100,2013-07-06 12:22:00,
2013-07-06 08:27:00,68.0,-23.0,28.05,SW,225,1.0,4.0,0,0.00,,,0.88,Rainwise IP-100,2013-07-06 12:27:00,
2013-07-06 08:32:00,68.0,-23.0,28.05,NE,45,0.0,4.0,0,0.06,,,0.89,Rainwise IP-100,2013-07-06 12:32:00,
2013-07-06 08:37:00,68.0,-23.0,28.05,SSE,157,0.0,1.0,0,0.06,,,0.89,Rainwise IP-100,2013-07-06 12:37:00,
2013-07-06 08:42:00,68.0,-23.0,28.06,ESE,112,0.0,0.0,0,0.00,,,0.90,Rainwise IP-100,2013-07-06 12:42:00,
2013-07-06 08:47:00,68.0,-23.0,28.06,ESE,112,0.0,0.0,0,0.06,,,0.90,Rainwise IP-100,2013-07-06 12:47:00,
2013-07-06 08:52:00,68.0,-23.0,28.06,ESE,112,0.0,0.0,0,0.06,,,0.90,Rainwise IP-100,2013-07-06 12:52:00,
2013-07-06 08:57:00,68.0,-23.0,28.06,ESE,112,0.0,0.0,0,0.00,,,0.90,Rainwise IP-100,2013-07-06 12:57:00,
2013-07-06 09:02:00,68.0,-23.0,28.05,ESE,112,0.0,3.0,0,0.00,,,0.90,Rainwise IP-100,2013-07-06 13:02:00,
2013-07-06 09:07:00,69.0,-23.0,28.06,SE,135,4.0,6.0,0,0.00,,,0.90,Rainwise IP-100,2013-07-06 13:07:00,
2013-07-06 09:12:00,69.0,-23.0,28.06,SSW,202,0.0,5.0,0,0.00,,,0.90,Rainwise IP-100,2013-07-06 13:12:00,
2013-07-06 09:17:00,70.0,-23.0,28.05,SW,225,1.0,3.0,0,0.00,,,0.90,Rainwise IP-100,2013-07-06 13:17:00,
2013-07-06 09:22:00,70.0,-23.0,28.06,ESE,112,0.0,3.0,0,0.00,,,0.90,Rainwise IP-100,2013-07-06 13:22:00,
2013-07-06 09:27:00,70.0,-23.0,28.06,ENE,67,0.0,2.0,0,0.00,,,0.90,Rainwise IP-100,2013-07-06 13:27:00,
2013-07-06 09:32:00,70.0,-23.0,28.06,SSE,157,2.0,4.0,0,0.00,,,0.90,Rainwise IP-100,2013-07-06 13:32:00,
2013-07-06 09:37:00,69.0,-23.0,28.06,South,180,0.0,4.0,0,0.00,,,0.90,Rainwise IP-100,2013-07-06 13:37:00,
2013-07-06 09:42:00,69.0,-23.0,28.06,ESE,112,3.0,3.0,0,0.00,,,0.90,Rainwise IP-100,2013-07-06 13:42:00,
2013-07-06 09:47:00,68.0,-23.0,28.06,SSW,202,1.0,4.0,0,0.00,,,0.90,Rainwise IP-100,2013-07-06 13:47:00,
2013-07-06 09:52:00,69.0,-23.0,28.06,SSW,202,2.0,3.0,0,0.00,,,0.90,Rainwise IP-100,2013-07-06 13:52:00,
2013-07-06 09:57:00,70.0,-23.0,28.05,SSE,157,2.0,5.0,0,0.00,,,0.90,Rainwise IP-100,2013-07-06 13:57:00,
2013-07-06 10:02:00,71.0,-23.0,28.06,South,180,1.0,5.0,0,0.00,,,0.90,Rainwise IP-100,2013-07-06 14:02:00,
2013-07-06 10:07:00,72.0,-23.0,28.06,SE,135,0.0,3.0,0,0.00,,,0.90,Rainwise IP-100,2013-07-06 14:07:00,
2013-07-06 10:12:00,72.0,-23.0,28.04,ESE,112,0.0,3.0,0,0.00,,,0.90,Rainwise IP-100,2013-07-06 14:12:00,
2013-07-06 10:17:00,72.0,-23.0,28.04,South,180,1.0,3.0,0,0.00,,,0.90,Rainwise IP-100,2013-07-06 14:17:00,
2013-07-06 10:22:00,72.0,-23.0,28.04,SW,225,0.0,6.0,0,0.00,,,0.90,Rainwise IP-100,2013-07-06 14:22:00,
2013-07-06 10:27:00,72.0,-23.0,28.04,SSE,157,5.0,5.0,0,0.00,,,0.90,Rainwise IP-100,2013-07-06 14:27:00,
2013-07-06 10:32:00,72.0,-23.0,28.04,South,180,0.0,5.0,0,0.00,,,0.90,Rainwise IP-100,2013-07-06 14:32:00,
2013-07-06 10:37:00,72.0,-23.0,28.04,SSW,202,0.0,5.0,0,0.00,,,0.90,Rainwise IP-100,2013-07-06 14:37:00,
2013-07-06 10:42:00,72.0,-23.0,28.05,South,180,2.0,7.0,0,0.00,,,0.90,Rainwise IP-100,2013-07-06 14:42:00,
2013-07-06 10:47:00,73.0,-23.0,28.05,South,180,2.0,7.0,0,0.00,,,0.90,Rainwise IP-100,2013-07-06 14:47:00,
2013-07-06 10:52:00,73.0,-23.0,28.05,ESE,112,1.0,6.0,0,0.00,,,0.90,Rainwise IP-100,2013-07-06 14:52:00,
2013-07-06 10:57:00,73.0,-23.0,28.05,SSW,202,3.0,9.0,0,0.00,,,0.90,Rainwise IP-100,2013-07-06 14:57:00,
2013-07-06 11:02:00,74.0,-23.0,28.05,SE,135,0.0,6.0,0,0.00,,,0.90,Rainwise IP-100,2013-07-06 15:02:00,
2013-07-06 11:07:00,74.0,-23.0,28.05,South,180,0.0,5.0,0,0.00,,,0.90,Rainwise IP-100,2013-07-06 15:07:00,
2013-07-06 11:12:00,75.0,-23.0,28.05,SSW,202,0.0,3.0,0,0.00,,,0.90,Rainwise IP-100,2013-07-06 15:12:00,
2013-07-06 11:17:00,75.0,-23.0,28.05,South,180,0.0,5.0,0,0.00,,,0.90,Rainwise IP-100,2013-07-06 15:17:00,
2013-07-06 11:22:00,75.0,-23.0,28.05,SSW,202,0.0,6.0,0,0.00,,,0.90,Rainwise IP-100,2013-07-06 15:22:00,
2013-07-06 11:27:00,76.0,-23.0,28.05,North,360,0.0,5.0,0,0.00,,,0.90,Rainwise IP-100,2013-07-06 15:27:00,
2013-07-06 11:32:00,76.0,-23.0,28.05,ESE,112,0.0,7.0,0,0.00,,,0.90,Rainwise IP-100,2013-07-06 15:32:00,
2013-07-06 11:37:00,76.0,-23.0,28.05,SE,135,0.0,5.0,0,0.00,,,0.90,Rainwise IP-100,2013-07-06 15:37:00,
2013-07-06 11:42:00,76.0,-23.0,28.05,SSE,157,0.0,0.0,0,0.00,,,0.90,Rainwise IP-100,2013-07-06 15:42:00,
2013-07-06 11:47:00,76.0,-23.0,28.04,SE,135,0.0,0.0,0,0.00,,,0.90,Rainwise IP-100,2013-07-06 15:47:00,
2013-07-06 11:52:00,77.0,-23.0,28.04,SSW,202,0.0,0.0,0,0.00,,,0.90,Rainwise IP-100,2013-07-06 15:52:00,
2013-07-06 11:57:00,77.0,-23.0,28.04,East,90,0.0,0.0,0,0.00,,,0.90,Rainwise IP-100,2013-07-06 15:57:00,
2013-07-06 12:02:00,77.0,-23.0,28.04,SW,225,0.0,0.0,0,0.00,,,0.90,Rainwise IP-100,2013-07-06 16:02:00,
2013-07-06 12:07:00,77.0,-23.0,28.04,SSE,157,0.0,0.0,0,0.00,,,0.90,Rainwise IP-100,2013-07-06 16:07:00,
2013-07-06 12:12:00,77.0,-23.0,28.04,SE,135,0.0,0.0,0,0.00,,,0.90,Rainwise IP-100,2013-07-06 16:12:00,
2013-07-06 12:17:00,77.0,-23.0,28.04,SW,225,0.0,0.0,0,0.00,,,0.90,Rainwise IP-100,2013-07-06 16:17:00,
2013-07-06 12:22:00,77.0,-23.0,28.04,SSE,157,0.0,5.0,0,0.00,,,0.90,Rainwise IP-100,2013-07-06 16:22:00,
2013-07-06 12:27:00,76.0,-23.0,28.04,SE,135,0.0,0.0,0,0.00,,,0.90,Rainwise IP-100,2013-07-06 16:27:00,
2013-07-06 12:32:00,77.0,-23.0,28.04,West,270,0.0,5.0,0,0.00,,,0.90,Rainwise IP-100,2013-07-06 16:32:00,
2013-07-06 12:37:00,76.0,-23.0,28.03,SSE,157,0.0,7.0,0,0.00,,,0.90,Rainwise IP-100,2013-07-06 16:37:00,
2013-07-06 12:42:00,77.0,-23.0,28.03,SSW,202,0.0,0.0,0,0.00,,,0.90,Rainwise IP-100,2013-07-06 16:42:00,
2013-07-06 12:47:00,77.0,-23.0,28.03,SE,135,0.0,0.0,0,0.00,,,0.90,Rainwise IP-100,2013-07-06 16:47:00,
2013-07-06 12:52:00,77.0,-23.0,28.03,ESE,112,0.0,3.0,0,0.00,,,0.90,Rainwise IP-100,2013-07-06 16:52:00,
2013-07-06 12:57:00,78.0,-23.0,28.03,ESE,112,0.0,5.0,0,0.00,,,0.90,Rainwise IP-100,2013-07-06 16:57:00,
2013-07-06 13:02:00,79.0,-23.0,28.02,SSE,157,0.0,0.0,0,0.00,,,0.90,Rainwise IP-100,2013-07-06 17:02:00,
2013-07-06 13:07:00,78.0,-23.0,28.02,SSE,157,0.0,4.0,0,0.00,,,0.90,Rainwise IP-100,2013-07-06 17:07:00,
2013-07-06 13:12:00,79.0,-23.0,28.01,SSE,157,0.0,0.0,0,0.00,,,0.90,Rainwise IP-100,2013-07-06 17:12:00,
2013-07-06 13:17:00,79.0,-23.0,28.01,SSE,157,0.0,5.0,0,0.00,,,0.90,Rainwise IP-100,2013-07-06 17:17:00,
2013-07-06 13:22:00,78.0,-23.0,28.02,East,90,0.0,0.0,0,0.00,,,0.90,Rainwise IP-100,2013-07-06 17:22:00,
2013-07-06 13:27:00,78.0,-23.0,28.02,South,180,0.0,4.0,0,0.00,,,0.90,Rainwise IP-100,2013-07-06 17:27:00,
2013-07-06 13:32:00,78.0,-13.0,28.01,SSE,157,0.0,0.0,2,0.00,,,0.90,Rainwise IP-100,2013-07-06 17:32:00,
2013-07-06 13:37:00,79.0,-23.0,28.01,WSW,247,0.0,0.0,0,0.00,,,0.90,Rainwise IP-100,2013-07-06 17:37:00,
2013-07-06 13:42:00,79.0,-23.0,28.00,SSW,202,0.0,0.0,1,0.00,,,0.90,Rainwise IP-100,2013-07-06 17:42:00,
2013-07-06 13:47:00,79.0,16.0,28.00,SSW,202,0.0,0.0,9,0.00,,,0.90,Rainwise IP-100,2013-07-06 17:47:00,
2013-07-06 13:52:00,80.0,-13.0,28.00,ESE,112,0.0,0.0,2,0.00,,,0.90,Rainwise IP-100,2013-07-06 17:52:00,
2013-07-06 13:57:00,79.0,24.0,28.00,SE,135,0.0,0.0,13,0.00,,,0.90,Rainwise IP-100,2013-07-06 17:57:00,
2013-07-06 14:02:00,78.0,-23.0,28.01,SSE,157,3.0,6.0,0,0.00,,,0.90,Rainwise IP-100,2013-07-06 18:02:00,
2013-07-06 14:07:00,77.0,-23.0,28.01,SSE,157,0.0,7.0,0,0.00,,,0.90,Rainwise IP-100,2013-07-06 18:07:00,
2013-07-06 14:12:00,77.0,-23.0,28.00,South,180,1.0,7.0,0,0.00,,,0.90,Rainwise IP-100,2013-07-06 18:12:00,
2013-07-06 14:17:00,77.0,-23.0,28.00,ESE,112,2.0,5.0,0,0.00,,,0.90,Rainwise IP-100,2013-07-06 18:17:00,
2013-07-06 14:22:00,78.0,-23.0,28.00,South,180,0.0,5.0,0,0.00,,,0.90,Rainwise IP-100,2013-07-06 18:22:00,
2013-07-06 14:27:00,78.0,-23.0,28.00,SSW,202,0.0,4.0,0,0.00,,,0.90,Rainwise IP-100,2013-07-06 18:27:00,
2013-07-06 14:32:00,79.0,-23.0,27.99,South,180,0.0,0.0,0,0.00,,,0.90,Rainwise IP-100,2013-07-06 18:32:00,
2013-07-06 14:38:00,78.0,-23.0,27.99,SW,225,0.0,0.0,0,0.00,,,0.90,Rainwise IP-100,2013-07-06 18:38:00,
2013-07-06 14:43:00,78.0,-23.0,27.99,SSW,202,0.0,4.0,0,0.00,,,0.90,Rainwise IP-100,2013-07-06 18:43:00,
2013-07-06 14:48:00,78.0,-23.0,27.99,SE,135,4.0,4.0,0,0.00,,,0.90,Rainwise IP-100,2013-07-06 18:48:00,
2013-07-06 14:53:00,79.0,-23.0,27.98,SE,135,0.0,5.0,1,0.00,,,0.90,Rainwise IP-100,2013-07-06 18:53:00,
2013-07-06 14:58:00,79.0,-6.0,27.98,SSW,202,0.0,5.0,3,0.00,,,0.90,Rainwise IP-100,2013-07-06 18:58:00,
2013-07-06 15:03:00,78.0,16.0,27.99,SW,225,4.0,5.0,9,0.00,,,0.90,Rainwise IP-100,2013-07-06 19:03:00,
2013-07-06 15:08:00,78.0,8.0,27.99,SE,135,3.0,7.0,6,0.00,,,0.90,Rainwise IP-100,2013-07-06 19:08:00,
2013-07-06 15:13:00,79.0,38.0,27.98,SE,135,0.0,6.0,23,0.00,,,0.90,Rainwise IP-100,2013-07-06 19:13:00,
2013-07-06 15:18:00,79.0,46.0,27.98,SE,135,0.0,6.0,31,0.00,,,0.90,Rainwise IP-100,2013-07-06 19:18:00,
2013-07-06 15:23:00,80.0,43.0,27.97,WSW,247,0.0,6.0,27,0.00,,,0.90,Rainwise IP-100,2013-07-06 19:23:00,
2013-07-06 15:28:00,80.0,50.0,27.97,SE,135,0.0,5.0,35,0.00,,,0.90,Rainwise IP-100,2013-07-06 19:28:00,
2013-07-06 15:33:00,80.0,53.5,27.98,ESE,112,0.0,0.0,40,0.00,,,0.90,Rainwise IP-100,2013-07-06 19:33:00,
2013-07-06 15:38:00,80.0,50.0,27.98,SSE,157,0.0,0.0,35,0.00,,,0.90,Rainwise IP-100,2013-07-06 19:38:00,
2013-07-06 15:43:00,80.0,54.5,27.98,SE,135,0.0,0.0,42,0.00,,,0.90,Rainwise IP-100,2013-07-06 19:43:00,
2013-07-06 15:48:00,80.0,42.0,27.97,SSE,157,0.0,0.0,26,0.00,,,0.90,Rainwise IP-100,2013-07-06 19:48:00,
2013-07-06 15:53:00,81.0,48.0,27.96,South,180,0.0,0.0,32,0.00,,,0.90,Rainwise IP-100,2013-07-06 19:53:00,
2013-07-06 15:58:00,81.0,63.0,27.96,SW,225,0.0,0.0,54,0.00,,,0.90,Rainwise IP-100,2013-07-06 19:58:00,
2013-07-06 16:03:00,82.0,63.0,27.95,ESE,112,0.0,0.0,53,0.00,,,0.90,Rainwise IP-100,2013-07-06 20:03:00,
2013-07-06 16:08:00,81.0,62.0,27.95,SW,225,0.0,0.0,52,0.00,,,0.90,Rainwise IP-100,2013-07-06 20:08:00,
2013-07-06 16:13:00,81.0,59.0,27.95,SE,135,0.0,0.0,47,0.00,,,0.90,Rainwise IP-100,2013-07-06 20:13:00,
2013-07-06 16:18:00,80.0,57.5,27.95,SE,135,0.0,4.0,47,0.00,,,0.90,Rainwise IP-100,2013-07-06 20:18:00,
2013-07-06 16:23:00,79.0,56.5,27.96,SSE,157,5.0,6.0,46,0.00,,,0.90,Rainwise IP-100,2013-07-06 20:23:00,
2013-07-06 16:28:00,77.0,8.0,27.96,SSE,157,6.0,10.0,6,0.00,,,0.90,Rainwise IP-100,2013-07-06 20:28:00,
2013-07-06 16:33:00,75.0,-23.0,27.98,SSE,157,0.0,8.0,0,0.00,,,0.90,Rainwise IP-100,2013-07-06 20:33:00,
2013-07-06 16:38:00,73.0,-23.0,27.98,South,180,5.0,7.0,0,0.00,,,0.90,Rainwise IP-100,2013-07-06 20:38:00,
2013-07-06 16:43:00,72.0,-23.0,27.98,NE,45,0.0,6.0,0,0.12,,,0.92,Rainwise IP-100,2013-07-06 20:43:00,
2013-07-06 16:48:00,71.0,-23.0,27.99,SE,135,0.0,3.0,0,0.18,,,0.93,Rainwise IP-100,2013-07-06 20:48:00,
2013-07-06 16:53:00,71.0,-23.0,27.99,SSE,157,0.0,6.0,0,0.06,,,0.93,Rainwise IP-100,2013-07-06 20:53:00,
2013-07-06 16:58:00,71.0,-23.0,27.99,ENE,67,0.0,4.0,0,0.00,,,0.93,Rainwise IP-100,2013-07-06 20:58:00,
2013-07-06 17:03:00,72.0,-23.0,27.98,SE,135,1.0,3.0,0,0.00,,,0.93,Rainwise IP-100,2013-07-06 21:03:00,
2013-07-06 17:08:00,71.0,-23.0,27.98,SW,225,0.0,5.0,0,0.00,,,0.93,Rainwise IP-100,2013-07-06 21:08:00,
2013-07-06 17:13:00,72.0,-23.0,27.98,SSW,202,0.0,3.0,0,0.00,,,0.93,Rainwise IP-100,2013-07-06 21:13:00,
2013-07-06 17:18:00,71.0,-23.0,27.98,SE,135,4.0,5.0,0,0.00,,,0.93,Rainwise IP-100,2013-07-06 21:18:00,
2013-07-06 17:23:00,72.0,-23.0,27.98,SSE,157,3.0,7.0,0,0.00,,,0.93,Rainwise IP-100,2013-07-06 21:23:00,
2013-07-06 17:28:00,72.0,-23.0,27.98,ESE,112,2.0,6.0,0,0.00,,,0.93,Rainwise IP-100,2013-07-06 21:28:00,
2013-07-06 17:33:00,72.0,-23.0,27.97,SE,135,3.0,6.0,0,0.00,,,0.93,Rainwise IP-100,2013-07-06 21:33:00,
2013-07-06 17:38:00,72.0,-23.0,27.97,SSE,157,1.0,5.0,0,0.00,,,0.93,Rainwise IP-100,2013-07-06 21:38:00,
2013-07-06 17:43:00,73.0,-23.0,27.96,South,180,0.0,3.0,0,0.00,,,0.93,Rainwise IP-100,2013-07-06 21:43:00,
2013-07-06 17:48:00,73.0,-23.0,27.96,SSW,202,1.0,4.0,0,0.00,,,0.93,Rainwise IP-100,2013-07-06 21:48:00,
2013-07-06 17:53:00,73.0,-23.0,27.96,ESE,112,2.0,4.0,0,0.00,,,0.93,Rainwise IP-100,2013-07-06 21:53:00,
2013-07-06 17:58:00,73.0,-23.0,27.96,South,180,0.0,3.0,0,0.00,,,0.93,Rainwise IP-100,2013-07-06 21:58:00,
2013-07-06 18:03:00,74.0,-23.0,27.96,SSW,202,0.0,3.0,0,0.00,,,0.93,Rainwise IP-100,2013-07-06 22:03:00,
2013-07-06 18:08:00,73.0,-23.0,27.96,SSW,202,0.0,2.0,0,0.00,,,0.93,Rainwise IP-100,2013-07-06 22:08:00,
2013-07-06 18:13:00,74.0,-23.0,27.96,SE,135,1.0,3.0,0,0.00,,,0.93,Rainwise IP-100,2013-07-06 22:13:00,
2013-07-06 18:18:00,74.0,-23.0,27.96,WSW,247,0.0,3.0,0,0.00,,,0.93,Rainwise IP-100,2013-07-06 22:18:00,
2013-07-06 18:23:00,74.0,-23.0,27.96,SSW,202,1.0,3.0,0,0.00,,,0.93,Rainwise IP-100,2013-07-06 22:23:00,
2013-07-06 18:28:00,74.0,-23.0,27.96,SSE,157,1.0,4.0,0,0.00,,,0.93,Rainwise IP-100,2013-07-06 22:28:00,
2013-07-06 18:33:00,74.0,-23.0,27.96,SW,225,0.0,3.0,0,0.00,,,0.93,Rainwise IP-100,2013-07-06 22:33:00,
2013-07-06 18:38:00,74.0,-23.0,27.96,SSW,202,0.0,6.0,0,0.00,,,0.93,Rainwise IP-100,2013-07-06 22:38:00,
2013-07-06 18:43:00,74.0,-23.0,27.96,South,180,0.0,3.0,0,0.00,,,0.93,Rainwise IP-100,2013-07-06 22:43:00,
2013-07-06 18:48:00,72.0,-23.0,27.96,East,90,0.0,3.0,0,0.30,,,0.99,Rainwise IP-100,2013-07-06 22:48:00,
2013-07-06 18:53:00,71.0,-23.0,27.98,ESE,112,1.0,2.0,0,0.54,,,1.03,Rainwise IP-100,2013-07-06 22:53:00,
2013-07-06 18:58:00,70.0,-23.0,27.98,SSW,202,0.0,4.0,0,0.54,,,1.07,Rainwise IP-100,2013-07-06 22:58:00,
2013-07-06 19:03:00,70.0,-23.0,27.98,SSW,202,0.0,0.0,0,0.30,,,1.08,Rainwise IP-100,2013-07-06 23:03:00,
2013-07-06 19:08:00,70.0,-23.0,27.98,SSW,202,0.0,0.0,0,0.06,,,1.08,Rainwise IP-100,2013-07-06 23:08:00,
2013-07-06 19:13:00,70.0,-23.0,27.99,SSW,202,0.0,0.0,0,0.06,,,1.08,Rainwise IP-100,2013-07-06 23:13:00,
2013-07-06 19:18:00,70.0,-23.0,27.99,SSW,202,0.0,0.0,0,0.00,,,1.08,Rainwise IP-100,2013-07-06 23:18:00,
2013-07-06 19:23:00,70.0,-23.0,27.98,SSW,202,0.0,0.0,0,0.00,,,1.08,Rainwise IP-100,2013-07-06 23:23:00,
2013-07-06 19:28:00,70.0,-23.0,27.98,SSW,202,0.0,0.0,0,0.00,,,1.08,Rainwise IP-100,2013-07-06 23:28:00,
2013-07-06 19:33:00,70.0,-23.0,27.99,SSW,202,0.0,0.0,0,0.00,,,1.08,Rainwise IP-100,2013-07-06 23:33:00,
2013-07-06 19:38:00,70.0,-23.0,27.99,SSW,202,0.0,0.0,0,0.00,,,1.08,Rainwise IP-100,2013-07-06 23:38:00,
2013-07-06 19:43:00,70.0,-23.0,27.99,SSW,202,0.0,0.0,0,0.00,,,1.08,Rainwise IP-100,2013-07-06 23:43:00,
2013-07-06 19:48:00,70.0,-23.0,27.98,SSW,202,0.0,0.0,0,0.00,,,1.08,Rainwise IP-100,2013-07-06 23:48:00,
2013-07-06 19:53:00,70.0,-23.0,27.98,SSW,202,0.0,0.0,0,0.00,,,1.08,Rainwise IP-100,2013-07-06 23:53:00,
2013-07-06 19:58:00,70.0,-23.0,27.99,SSW,202,0.0,0.0,0,0.00,,,1.08,Rainwise IP-100,2013-07-06 23:58:00,
2013-07-06 20:03:00,69.0,-23.0,27.99,ESE,112,0.0,3.0,0,0.00,,,1.08,Rainwise IP-100,2013-07-07 00:03:00,
2013-07-06 20:08:00,69.0,-23.0,27.99,ESE,112,0.0,0.0,0,0.00,,,1.08,Rainwise IP-100,2013-07-07 00:08:00,
2013-07-06 20:13:00,69.0,-23.0,27.99,ESE,112,0.0,0.0,0,0.00,,,1.09,Rainwise IP-100,2013-07-07 00:13:00,
2013-07-06 20:18:00,69.0,-23.0,27.99,ESE,112,0.0,0.0,0,0.06,,,1.09,Rainwise IP-100,2013-07-07 00:18:00,
2013-07-06 20:23:00,69.0,-23.0,27.99,ESE,112,0.0,0.0,0,0.18,,,1.11,Rainwise IP-100,2013-07-07 00:23:00,
2013-07-06 20:28:00,68.0,-23.0,27.99,ESE,112,0.0,0.0,0,0.42,,,1.18,Rainwise IP-100,2013-07-07 00:28:00,
2013-07-06 20:33:00,68.0,-23.0,28.00,ESE,112,0.0,0.0,0,0.72,,,1.23,Rainwise IP-100,2013-07-07 00:33:00,
2013-07-06 20:38:00,68.0,-23.0,28.00,ESE,112,0.0,0.0,0,0.42,,,1.23,Rainwise IP-100,2013-07-07 00:38:00,
2013-07-06 20:43:00,68.0,-23.0,27.99,ESE,112,0.0,0.0,0,0.00,,,1.23,Rainwise IP-100,2013-07-07 00:43:00,
2013-07-06 20:48:00,68.0,-23.0,27.99,ESE,112,0.0,0.0,0,0.00,,,1.23,Rainwise IP-100,2013-07-07 00:48:00,
2013-07-06 20:53:00,68.0,-23.0,27.99,ESE,112,0.0,1.0,0,0.06,,,1.24,Rainwise IP-100,2013-07-07 00:53:00,
2013-07-06 20:58:00,68.0,-23.0,28.00,East,90,0.0,0.0,0,0.06,,,1.24,Rainwise IP-100,2013-07-07 00:58:00,
2013-07-06 21:03:00,68.0,-23.0,27.99,NNE,22,0.0,0.0,0,0.00,,,1.24,Rainwise IP-100,2013-07-07 01:03:00,
2013-07-06 21:08:00,68.0,-23.0,27.99,SSW,202,0.0,2.0,0,0.00,,,1.24,Rainwise IP-100,2013-07-07 01:08:00,
2013-07-06 21:13:00,68.0,-23.0,27.98,SSW,202,0.0,0.0,0,0.00,,,1.24,Rainwise IP-100,2013-07-07 01:13:00,
2013-07-06 21:18:00,68.0,-23.0,27.98,SSW,202,0.0,0.0,0,0.00,,,1.24,Rainwise IP-100,2013-07-07 01:18:00,
2013-07-06 21:23:00,68.0,-23.0,28.00,SSE,157,0.0,2.0,0,0.00,,,1.24,Rainwise IP-100,2013-07-07 01:23:00,
2013-07-06 21:28:00,68.0,-23.0,28.00,SSE,157,0.0,0.0,0,0.00,,,1.24,Rainwise IP-100,2013-07-07 01:28:00,
2013-07-06 21:33:00,68.0,-23.0,27.99,SSE,157,0.0,0.0,0,0.00,,,1.24,Rainwise IP-100,2013-07-07 01:33:00,
2013-07-06 21:38:00,68.0,-23.0,27.99,East,90,0.0,0.0,0,0.00,,,1.24,Rainwise IP-100,2013-07-07 01:38:00,
2013-07-06 21:43:00,68.0,-23.0,28.00,East,90,0.0,0.0,0,0.00,,,1.24,Rainwise IP-100,2013-07-07 01:43:00,
2013-07-06 21:48:00,68.0,-23.0,28.00,East,90,0.0,0.0,0,0.00,,,1.24,Rainwise IP-100,2013-07-07 01:48:00,
2013-07-06 21:53:00,68.0,-23.0,28.00,East,90,0.0,0.0,0,0.00,,,1.24,Rainwise IP-100,2013-07-07 01:53:00,
2013-07-06 21:58:00,68.0,-23.0,28.00,SSW,202,0.0,2.0,0,0.00,,,1.24,Rainwise IP-100,2013-07-07 01:58:00,
2013-07-06 22:03:00,69.0,-23.0,28.00,North,360,0.0,2.0,0,0.00,,,1.24,Rainwise IP-100,2013-07-07 02:03:00,
2013-07-06 22:08:00,68.0,-23.0,28.00,SSW,202,0.0,0.0,0,0.00,,,1.24,Rainwise IP-100,2013-07-07 02:08:00,
2013-07-06 22:13:00,68.0,-23.0,28.00,SSW,202,0.0,0.0,0,0.00,,,1.24,Rainwise IP-100,2013-07-07 02:13:00,
2013-07-06 22:18:00,68.0,-23.0,28.01,South,180,0.0,2.0,0,0.06,,,1.26,Rainwise IP-100,2013-07-07 02:18:00,
2013-07-06 22:23:00,69.0,-23.0,28.00,SW,225,4.0,4.0,0,0.12,,,1.26,Rainwise IP-100,2013-07-07 02:23:00,
2013-07-06 22:28:00,68.0,-23.0,28.00,WSW,247,0.0,5.0,0,0.06,,,1.26,Rainwise IP-100,2013-07-07 02:28:00,
2013-07-06 22:33:00,69.0,-23.0,28.00,SE,135,3.0,5.0,0,0.06,,,1.27,Rainwise IP-100,2013-07-07 02:33:00,
2013-07-06 22:38:00,69.0,-23.0,28.00,SSE,157,0.0,4.0,0,0.06,,,1.27,Rainwise IP-100,2013-07-07 02:38:00,
2013-07-06 22:43:00,69.0,-23.0,28.01,South,180,7.0,7.0,0,0.00,,,1.27,Rainwise IP-100,2013-07-07 02:43:00,
2013-07-06 22:48:00,69.0,-23.0,28.01,ESE,112,0.0,8.0,0,0.00,,,1.27,Rainwise IP-100,2013-07-07 02:48:00,
2013-07-06 22:53:00,69.0,-23.0,28.01,South,180,1.0,5.0,0,0.00,,,1.27,Rainwise IP-100,2013-07-07 02:53:00,
2013-07-06 22:58:00,69.0,-23.0,28.01,NNE,22,2.0,5.0,0,0.00,,,1.27,Rainwise IP-100,2013-07-07 02:58:00,
2013-07-06 23:03:00,69.0,-23.0,28.00,NE,45,0.0,2.0,0,0.00,,,1.27,Rainwise IP-100,2013-07-07 03:03:00,
2013-07-06 23:08:00,69.0,-23.0,28.00,North,360,0.0,3.0,0,0.00,,,1.27,Rainwise IP-100,2013-07-07 03:08:00,
2013-07-06 23:13:00,69.0,-23.0,28.00,SSW,202,0.0,3.0,0,0.00,,,1.27,Rainwise IP-100,2013-07-07 03:13:00,
2013-07-06 23:18:00,68.0,-23.0,28.00,SSW,202,0.0,5.0,0,0.00,,,1.27,Rainwise IP-100,2013-07-07 03:18:00,
2013-07-06 23:23:00,69.0,-23.0,28.01,SE,135,3.0,3.0,0,0.00,,,1.27,Rainwise IP-100,2013-07-07 03:23:00,
2013-07-06 23:28:00,69.0,-23.0,28.01,SE,135,0.0,4.0,0,0.00,,,1.27,Rainwise IP-100,2013-07-07 03:28:00,
2013-07-06 23:33:00,69.0,-23.0,28.01,ESE,112,3.0,3.0,0,0.00,,,1.27,Rainwise IP-100,2013-07-07 03:33:00,
2013-07-06 23:38:00,69.0,-23.0,28.01,ESE,112,0.0,4.0,0,0.00,,,1.27,Rainwise IP-100,2013-07-07 03:38:00,
2013-07-06 23:43:00,69.0,-23.0,28.01,East,90,0.0,3.0,0,0.00,,,1.27,Rainwise IP-100,2013-07-07 03:43:00,
2013-07-06 23:48:00,69.0,-23.0,28.01,SW,225,0.0,0.0,0,0.00,,,1.27,Rainwise IP-100,2013-07-07 03:48:00,
2013-07-06 23:53:00,69.0,-23.0,28.01,South,180,0.0,0.0,0,0.00,,,1.27,Rainwise IP-100,2013-07-07 03:53:00,
2013-07-06 23:58:00,69.0,-23.0,28.01,SSW,202,0.0,0.0,0,0.00,,,1.27,Rainwise IP-100,2013-07-07 03:58:00,